Flag for Qatar Weather past 2 weeks in Al-Jamiliyah, Qatar

Now
65 °F

Sunny.


Feels Like: 65 °F
Forecast: 62 / 72 °F
Wind: 8 mph from Northwest

Location: Al Udeid

Current Time: Dec 18, 2014 at 8:44:54 PM

Latest Report: Dec 18, 2014 at 7:58 PM


Visibility: N/A

Pressure: 30.22 "Hg

Humidity: 60%

Dew point: 51 °F

Location of Al-JamiliyahLocation

Historic Weather in Al-Jamiliyah — Graph

°F

Al-Jamiliyah temperature yesterday

Maximum temperature yesterday: 78 °F (at 1:57 PM)
Minimum temperature yesterday: 62 °F (at 6:58 AM)
Average temperature yesterday: 70 °F

Past Weeks' High & Low Weather Summary

 TemperatureHumidityPressure
High81 °F (Dec 15, 12:58 PM)100% (Dec 6, 12:58 AM)30.24 "Hg (Dec 6, 12:58 AM)
Low56 °F (Dec 14, 4:58 AM)26% (Dec 15, 12:58 PM)30.02 "Hg (Dec 16, 2:58 PM)
Average69 °F74%30.12 "Hg
* Reported Dec 3 6:58 PM — Dec 18 6:58 PM, Al-Jamiliyah, Weather by CustomWeather, © 2014

Note: Actual official high and low records may vary slightly from our data, if they occured in-between our weather recording intervals... More about our weather records

Advertising

Al-Jamiliyah weather history for previous 24 hours

 ConditionsComfort  
Time TempWeatherWind HumidityBarometerVisibility
6:58 PM
Dec 18
66 °FPassing clouds.9 mph59%30.21 "HgN/A
5:58 PM67 °FPassing clouds.10 mph55%30.19 "HgN/A
4:58 PM69 °FPassing clouds.16 mph53%30.16 "HgN/A
3:58 PM71 °FSunny.16 mph46%30.14 "HgN/A
2:58 PM72 °FSunny.21 mph43%30.14 "HgN/A
1:58 PM73 °FClear.16 mph45%30.14 "HgN/A
12:58 PM73 °FClear.18 mph49%30.15 "HgN/A
11:58 AM72 °FLow level haze.20 mph52%30.16 "Hg6 mi
10:58 AM71 °FLow level haze.22 mph57%30.20 "Hg6 mi
9:58 AM70 °FClear.17 mph66%30.22 "Hg5 mi
8:58 AM67 °FClear.18 mph71%30.24 "Hg4 mi
7:59 AM64 °FFog.14 mph80%30.22 "Hg2 mi
6:58 AM62 °FFog.13 mph88%30.19 "Hg2 mi
5:58 AM62 °FFog.14 mph87%30.19 "Hg2 mi
4:58 AM63 °FFog.16 mph84%30.16 "Hg2 mi
3:59 AM64 °FFog.15 mph88%30.15 "Hg2 mi
2:58 AM64 °FFog.14 mph88%30.16 "Hg2 mi
1:58 AM65 °FFog.12 mph88%30.17 "Hg3 mi
12:58 AM65 °FFog.10 mph85%30.19 "Hg4 mi
11:58 PM
Dec 17
65 °FClear.8 mph86%30.19 "Hg4 mi
10:58 PM67 °FClear.7 mph81%30.19 "HgN/A
9:58 PM67 °FClear.9 mph79%30.19 "HgN/A
8:58 PM69 °FClear.14 mph77%30.19 "HgN/A
Weather by CustomWeather, © 2014

See weather overviewHow to use our weather pages